Regional Weather Roundup
Issued by NWS

Home | Current Version | Previous Version | Text Only | Print | Product List | Glossary On
Versions: 1 2 3 4 5 6 7 8 9 10 11 12 13 14 15 16 17 18 19 20 21 22 23 24 25 26 27 28 29 30 31 32 33 34 35 36 37 38 39 40 41 42 43 44 45 46 47 48 49 50
000
ASUS43 KLSX 191357
RWRMO

WEATHER SUMMARY FOR MISSOURI
NATIONAL WEATHER SERVICE SPRINGFIELD MO
900 AM CDT THU OCT 19 2017

NOTE: "FAIR" INDICATES FEW OR NO CLOUDS BELOW 12,000 FEET WITH NO
       SIGNIFICANT WEATHER AND/OR OBSTRUCTIONS TO VISIBILITY.
       CURRENT SKY AND/OR WEATHER CONDITIONS ARE NOT AVAILABLE FOR
       CHILLICOTHE AND FARMINGTON.

MOZ001>031-035>038-043-044-053-054-191500-
...NORTHERN AND WESTERN MISSOURI...

CITY           SKY/WX    TMP DP  RH WIND       PRES   REMARKS
KANSAS CTY INT SUNNY     57  51  80 S8        30.11R
LEE`S SUMMIT   SUNNY     58  49  72 SW9       30.12R
ST JOSEPH      SUNNY     50  50 100 CALM      30.10R
CHILLICOTHE      N/A     53  51  93 CALM      30.13R

$$
MOZ066>068-077>081-088>096-101>105-191500-
...SOUTHWEST MISSOURI...

CITY           SKY/WX    TMP DP  RH WIND       PRES   REMARKS
SPRINGFIELD    SUNNY     56  50  80 S13       30.19R
JOPLIN           N/A     61  51  70 MISG      30.17R
BRANSON        MOSUNNY   61  50  67 S5        30.23R

$$
MOZ032>034-039>042-045>050-055>058-069>072-191500-
...CENTRAL MISSOURI...

CITY           SKY/WX    TMP DP  RH WIND       PRES   REMARKS
COLUMBIA       NOT AVBL
JEFFERSON CITY SUNNY     55  49  80 E6        30.17R
ROLLA          SUNNY     60  50  69 S9        30.20R
SEDALIA        SUNNY     61  51  70 SW10      30.16R
WARRENSBURG    SUNNY     54  46  76 S7        30.13R

$$
MOZ051-052-059>065-191500-
...EAST CENTRAL MISSOURI...

CITY           SKY/WX    TMP DP  RH WIND       PRES   REMARKS
ST LOUIS INTL  MOSUNNY   61  51  70 SW9       30.19R

$$
MOZ072>076-082>087-097>100-106>115-191500-
...SOUTH CENTRAL AND SOUTHEAST MISSOURI...

CITY           SKY/WX    TMP DP  RH WIND       PRES   REMARKS
CAPE GIRARDEAU SUNNY     59  49  69 SW3       30.25R
POPLAR BLUFF   SUNNY     55  50  83 CALM      30.24R
WEST PLAINS    SUNNY     56  50  80 CALM      30.23R

$$



USA.gov is the U.S. government's official web portal to all federal, state and local government web resources and services.